Home   Weather   Riehen   Past weeks

Flag for Switzerland Past Weather in Riehen, Basel-Stadt, Switzerland — Yesterday and Last 2 Weeks

Now
71 °F

Mild.


Feels Like: 77 °F
Forecast: 56 / 73 °F
Wind: 8 mph from West

Location: Bale-Mulhouse

Current Time: Jul 26, 2017 at 6:55:57 pm

Latest Report: Jul 26, 2017 at 6:00 pm


Visibility: 31 mi

Pressure: 29.90 "Hg

Humidity: 50%

Dew Point: 51 °F

Location of RiehenLocation

Past Weather in Riehen — Graph

°F

Riehen Temperature Yesterday

Maximum temperature yesterday: 70 °F (at 6:00 pm)
Minimum temperature yesterday: 57 °F (at 5:00 am)
Average temperature yesterday: 61 °F

High & Low Weather Summary for the Past Weeks

 TemperatureHumidityPressure
High92 °F (Jul 19, 2:00 pm)97% (Jul 22, 6:00 am)30.29 "Hg (Jul 22, 6:00 am)
Low51 °F (Jul 16, 2:00 am)31% (Jul 18, 5:00 pm)29.78 "Hg (Jul 21, 5:00 pm)
Average68 °F69%30.01 "Hg
* Reported Jul 11 5:00 pm — Jul 26 5:00 pm, Riehen. Weather by CustomWeather, © 2017

Note: Actual official high and low records may vary slightly from our data, if they occured in-between our weather recording intervals... More about our weather records

Advertising

Riehen Weather History for the Previous 24 Hours

Scroll right to see more
 ConditionsComfort  
Time TempWeatherWind HumidityBarometerVisibility
5:00 pm
Wed, Jul 26
71 °FOvercast.10 mph49%29.91 "Hg25 mi
4:00 pm69 °FOvercast.10 mph53%29.92 "Hg25 mi
3:00 pm68 °FOvercast.13 mph56%29.93 "Hg25 mi
2:00 pm67 °FOvercast.15 mph59%29.93 "Hg25 mi
1:00 pm65 °FOvercast.17 mph63%29.92 "Hg28 mi
12:00 pm65 °FOvercast.16 mph65%29.92 "Hg25 mi
11:00 am62 °FOvercast.12 mph75%29.92 "Hg25 mi
10:00 am58 °FOvercast.8 mph83%29.93 "Hg19 mi
9:00 am58 °FOvercast.12 mph85%29.92 "Hg9 mi
8:00 am57 °FLight rain. Overcast.10 mph88%29.90 "Hg9 mi
7:00 am58 °FLight rain. Overcast.10 mph90%29.90 "Hg6 mi
6:00 am58 °FLight rain. Overcast.10 mph90%29.90 "Hg6 mi
5:00 am58 °FLight rain. Overcast.9 mph90%29.89 "Hg9 mi
4:00 am59 °FLight rain. Overcast.12 mph89%29.88 "Hg14 mi
3:00 am59 °FRain. Overcast.12 mph87%29.87 "Hg28 mi
2:00 am59 °FRain. Overcast.12 mph87%29.87 "Hg25 mi
1:00 am59 °FOvercast.9 mph88%29.88 "Hg37 mi
12:00 am59 °FOvercast.7 mph87%29.88 "Hg9 mi
11:00 pm
Tue, Jul 25
58 °FLow clouds.5 mph92%29.89 "Hg25 mi
10:00 pm58 °FOvercast.6 mph94%29.89 "Hg16 mi
9:00 pm58 °FThunderstorms. Low clouds.2 mph94%29.89 "Hg7 mi
8:00 pm58 °FThundershowers. Overcast.13 mph91%29.89 "Hg2 mi
7:00 pm68 °FPartly sunny.10 mph58%29.84 "Hg12 mi
6:00 pm70 °FOvercast.9 mph57%29.84 "Hg12 mi
Weather by CustomWeather, © 2017

See weather overviewHow to use our weather pages